Moses Lake, WA

11:30 PM PDT on March 27, 2017 (GMT -0700)
Grant County International

Weather History for KMWH - April, 2012

Change the Weather History Date:

Friday, April 27, 2012

  Actual Average Record
Temperature  
Mean Temperature 52 °F 53 °F  
Max Temperature 63 °F 67 °F 79 °F (1980)
Min Temperature 40 °F 39 °F 28 °F (1999)
Degree Days  
Heating Degree Days 13 12  
Month to date heating degree days 374 410  
Since 1 July heating degree days 5515 5582  
Cooling Degree Days 0 0  
Month to date cooling degree days 9 0  
Year to date cooling degree days 9 0  
Moisture  
Dew Point 29 °F    
Average Humidity 51    
Maximum Humidity 79    
Minimum Humidity 23    
Precipitation  
Precipitation 0.00 in 0.02 in 0.51 in (2002)
Month to date precipitation 0.80 0.64  
Year to date precipitation 2.73 3.36  
Sea Level Pressure  
Sea Level Pressure 30.13 in    
Wind  
Wind Speed 10 mph (WSW)    
Max Wind Speed 20 mph    
Max Gust Speed 25 mph    
Visibility 10 miles    
Events      
T = Trace of Precipitation, MM = Missing Value Source: NWS Daily Summary

Daily Weather History Graph

Daily Weather History Graph

Search for Another Location

Airport or City:

Trip Planner

Search our weather history database for the weather conditions in past years. The results will help you decide how hot, cold, wet, or windy it might be!

Date:

Astronomy

Apr. 27, 2012 Rise Set
Actual Time 5:46 AM PDT 8:03 PM PDT
Civil Twilight 5:13 AM PDT 8:37 PM PDT
Nautical Twilight 4:31 AM PDT 9:19 PM PDT
Astronomical Twilight 3:44 AM PDT 10:07 PM PDT
Moon 10:24 AM PDT (4/27) 1:00 AM PDT (4/27)
Length of Visible Light 15h 24m
Length of Day
14h 16m
Waxing Crescent, 34% of the Moon is Illuminated
Apr 27
Waxing Crescent
Apr 29
First Quarter
May 5
Full
May 12
Last Quarter
May 20
New

Hourly Weather History & Observations

Time (PDT) Temp. Windchill Dew Point Humidity Pressure Visibility Wind Dir Wind Speed Gust Speed Precip Events Conditions
12:52 AM 43.0 °F 36.4 °F 32.0 °F 65% 29.96 in 10.0 mi SW 12.7 mph - N/A   Clear
1:52 AM 43.0 °F 37.2 °F 30.0 °F 60% 29.98 in 10.0 mi WSW 10.4 mph - N/A   Clear
2:52 AM 42.1 °F 38.4 °F 32.0 °F 67% 30.01 in 10.0 mi WSW 5.8 mph - N/A   Clear
3:52 AM 42.1 °F 36.1 °F 30.9 °F 65% 30.04 in 10.0 mi SW 10.4 mph - N/A   Clear
4:52 AM 41.0 °F 33.9 °F 30.9 °F 67% 30.06 in 10.0 mi WSW 12.7 mph - N/A   Clear
5:52 AM 39.9 °F 33.9 °F 33.1 °F 77% 30.08 in 10.0 mi WSW 9.2 mph - N/A   Clear
6:52 AM 42.1 °F 36.6 °F 33.1 °F 70% 30.12 in 10.0 mi WSW 9.2 mph - N/A   Clear
7:52 AM 46.9 °F - 33.1 °F 59% 30.14 in 10.0 mi West 10.4 mph - N/A   Clear
8:52 AM 51.1 °F - 32.0 °F 48% 30.15 in 10.0 mi West 11.5 mph - N/A   Clear
9:52 AM 54.0 °F - 28.9 °F 38% 30.16 in 10.0 mi West 11.5 mph - N/A   Clear
10:52 AM 57.0 °F - 28.9 °F 34% 30.17 in 10.0 mi West 11.5 mph 20.7 mph N/A   Clear
11:52 AM 57.9 °F - 25.0 °F 28% 30.19 in 10.0 mi WSW 13.8 mph 19.6 mph N/A   Partly Cloudy
12:52 PM 57.9 °F - 24.1 °F 27% 30.18 in 10.0 mi SSW 10.4 mph - N/A   Clear
1:52 PM 60.1 °F - 28.0 °F 30% 30.18 in 10.0 mi SSW 12.7 mph 16.1 mph N/A   Clear
2:52 PM 61.0 °F - 28.0 °F 29% 30.17 in 10.0 mi SW 6.9 mph - N/A   Partly Cloudy
3:52 PM 62.1 °F - 25.0 °F 24% 30.16 in 10.0 mi SSW 10.4 mph 20.7 mph N/A   Clear
4:52 PM 61.0 °F - 25.0 °F 25% 30.15 in 10.0 mi SSW 12.7 mph 20.7 mph N/A   Clear
5:52 PM 60.1 °F - 26.1 °F 27% 30.15 in 10.0 mi SW 15.0 mph - N/A   Clear
6:52 PM 60.1 °F - 28.0 °F 30% 30.14 in 10.0 mi SW 15.0 mph - N/A   Clear
7:52 PM 55.9 °F - 30.0 °F 37% 30.15 in 10.0 mi WSW 11.5 mph - N/A   Clear
8:52 PM 53.1 °F - 30.9 °F 43% 30.17 in 10.0 mi West 8.1 mph - N/A   Clear
9:52 PM 48.9 °F - 28.9 °F 46% 30.19 in 10.0 mi WNW 5.8 mph - N/A   Clear
10:52 PM 48.0 °F - 28.9 °F 48% 30.19 in 10.0 mi WSW 5.8 mph - N/A   Clear
11:52 PM 48.2 °F - 28.4 °F 46% 30.18 in 10.0 mi West 9.2 mph - N/A   Clear